TITAN 3C TRANSTAGE DEB, 43515

Orbit data source: Space-Track

TITAN 3C TRANSTAGE DEB, 43515 is space debris in GEO originally from a launch on Sun, 09 Feb 1969 UTC launched from the Air Force Eastern Test Range (AFETR). Debris objects in space refer to the collection of defunct objects orbiting the Earth. Examples of debris include non-operational satellites, rocket bodies, and fragments generated from explosions, collisions, or faulty payload assembly.

Not visible in the next 10 days
Identifier
43515, 1969-013T
Orbit
GEO
Country
Flag of USUS
Related business
Manufacturer
Martin Marietta
Mission
Spacecraft
Bus & Motor
Unknown
Mass
Unknown
Launch date (UTC)
1969-02-09 (57 years ago)
Launch vehicle
Unknown
Launch site
Air Force Eastern Test Range (AFETR)
Object type
Payload
Rocket body
Debris
Shape & HBR
Unknown shape, 1.1 m
Radar Cross Section
RCS unknown

Expand to show TLE details & history
Last TLE update: 2 months ago

TLE from 2 months ago
0 TITAN 3C TRANSTAGE DEB
1 43515U 69013T   26050.04127758 -.00000072  00000-0  00000+0 0  9993
2 43515   1.5348  55.1758 0312805 150.6557 212.1051  0.95439532 27090
Epoch: 2026-02-19T00:59Z
TLE epoch observation values (Epoch: 2026-02-19T00:59:26.382Z)
Latitude
-0°
Longitude
-107.75947°
Altitude
38,357.529 km
Speed
2.945 km/s
True Right ascension
03h 44m 23s
True Declination
0° 00' 00"
Sunlit
Object was in daylight at epoch
Visualization orbit readout
Latitude
Unknown
Longitude
Unknown
Altitude
Unknown
Speed
Unknown
Apparent Right ascension
Unknown
Apparent Declination
Unknown
Sunlit
N/A
Visualization observer readout
Local Sidereal Time
20:50:08
Azimuth
Unknown
Elevation
Unknown
Doppler factor
Unknown
Orbital elements
Apogee altitude
38,562.248 km
Perigee altitude
35,836.011 km
Semi-major axis
43,577.266 km
Eccentricity
0.03128
Inclination
1.5348°
RAAN
55.1758°
Arg. of periapsis
150.6557°
True anomaly
210.26151°
Mean anomaly
212.1051°
Eccentric anomaly
211.17728°
Mean motion
0.23859 °/min
Orbital period
1,508.86 mins
BSTAR
0
Loading maneuver chart data...
Computing Atmospheric mass density...

Documentation

Showing up to 5 results
|